WX8TJG-WX Weather Reports


Display with metric or nautical units.
time (UTC)temp
F
wind
direction
speed
MPH
gust
MPH
rain 1hr
in
rain 24hr
in
rain mn
in
humidity
%
barometer
mb
20260506204017 53 300 6.0 11.0 0.00 0.65 0.10 56 1012.6
20260506203040 54 311 5.0 10.0 0.00 0.65 0.10 56 1012.6
20260506202017 53 300 4.0 7.0 0.00 0.65 0.10 56 1012.8
20260506201017 54 311 6.0 9.0 0.00 0.65 0.10 55 1012.9
20260506200017 53 302 4.0 6.0 0.00 0.65 0.10 57 1012.9
20260506195018 53 281 6.0 9.0 0.00 0.65 0.10 58 1012.8
20260506194019 53 277 12.0 19.0 0.00 0.67 0.10 59 1012.7
20260506193016 53 283 13.0 19.0 0.00 0.67 0.10 56 1012.7
20260506192036 54 283 12.0 18.0 0.00 0.67 0.10 55 1012.8
20260506191016 54 339 8.0 17.0 0.00 0.68 0.10 55 1012.7
20260506190018 54 340 7.0 13.0 0.00 0.68 0.10 56 1012.5
20260506185015 53 331 9.0 13.0 0.00 0.68 0.10 57 1012.6
20260506184015 53 334 9.0 13.0 0.00 0.68 0.10 58 1012.9
20260506183016 53 311 9.0 15.0 0.00 0.68 0.10 59 1012.9
20260506182016 54 297 9.0 13.0 0.00 0.68 0.10 59 1012.9
20260506181036 55 291 8.0 26.0 0.00 0.68 0.10 58 1012.6
20260506180016 55 317 6.0 16.0 0.00 0.68 0.10 60 1012.5
20260506175016 55 322 6.0 14.0 0.00 0.68 0.10 57 1012.6
20260506174017 54 332 6.0 10.0 0.00 0.68 0.10 58 1012.8
20260506173017 55 296 7.0 12.0 0.00 0.68 0.10 59 1012.7
20260506172017 55 289 6.0 12.0 0.00 0.68 0.10 60 1012.5
20260506171017 55 323 6.0 11.0 0.00 0.68 0.10 60 1012.5
20260506170017 54 345 6.0 11.0 0.00 0.68 0.10 63 1012.4
20260506165017 54 329 6.0 10.0 0.00 0.68 0.10 65 1012.4
20260506164037 53 307 5.0 8.0 0.00 0.68 0.10 65 1012.4
20260506163018 53 313 6.0 10.0 0.00 0.68 0.10 64 1012.8
20260506162018 53 313 6.0 12.0 0.00 0.68 0.10 66 1013.0
20260506161018 53 309 5.0 9.0 0.00 0.68 0.10 69 1012.6
20260506160018 53 313 6.0 18.0 0.00 0.68 0.10 68 1012.4
20260506155015 53 324 5.0 8.0 0.00 0.68 0.10 71 1012.3
20260506154016 51 316 4.0 11.0 0.00 0.68 0.10 72 1012.2
20260506153016 51 338 5.0 9.0 0.00 0.68 0.10 72 1012.3
20260506152016 51 316 4.0 6.0 0.00 0.68 0.10 74 1012.3
20260506151016 50 350 6.0 10.0 0.00 0.68 0.10 74 1012.2
20260506150017 50 300 5.0 9.0 0.00 0.68 0.10 77 1012.1
20260506145036 49 315 6.0 11.0 0.00 0.68 0.10 77 1012.0
20260506144017 49 294 6.0 12.0 0.00 0.68 0.10 78 1011.6
20260506143017 49 300 4.0 8.0 0.00 0.68 0.10 79 1011.4
20260506142017 48 317 6.0 11.0 0.00 0.68 0.10 80 1011.1
20260506141017 47 322 5.0 8.0 0.00 0.68 0.10 81 1011.2
20260506140017 47 327 6.0 11.0 0.00 0.68 0.10 81 1011.1
20260506135058 47 295 6.0 10.0 0.00 0.68 0.10 81 1011.2
20260506134037 46 336 4.0 8.0 0.00 0.68 0.10 83 1011.2
20260506133018 46 320 5.0 9.0 0.00 0.68 0.10 85 1011.1
20260506132018 45 328 4.0 6.0 0.00 0.68 0.10 88 1011.1
20260506131022 45 343 2.0 4.0 0.00 0.68 0.10 90 1011.0
20260506130018 44 318 3.0 7.0 0.00 0.68 0.10 91 1010.9
20260506125018 44 333 3.0 5.0 0.00 0.68 0.10 92 1010.6
20260506124018 44 317 4.0 7.0 0.00 0.68 0.10 93 1010.4
20260506123039 44 326 3.0 6.0 0.00 0.68 0.10 93 1010.5
20260506122039 44 336 3.0 4.0 0.00 0.68 0.10 93 1010.2
20260506121039 44 322 4.0 7.0 0.00 0.68 0.10 94 1010.0
20260506120039 44 343 4.0 5.0 0.00 0.68 0.10 96 1009.7
20260506115023 44 346 3.0 5.0 0.00 0.68 0.10 96 1009.4
20260506114023 43 2 3.0 4.0 0.00 0.68 0.10 97 1009.3
20260506113024 43 1 3.0 5.0 0.00 0.68 0.10 97 1009.2
20260506112024 43 3 3.0 4.0 0.00 0.68 0.10 97 1009.3
20260506111039 43 328 3.0 5.0 0.00 0.68 0.10 97 1009.8
20260506110020 43 303 3.0 6.0 0.00 0.68 0.10 98 1009.6
20260506105019 44 26 3.0 5.0 0.00 0.68 0.10 98 1008.6
20260506104020 44 0 4.0 7.0 0.00 0.68 0.10 98 1008.7
20260506103025 44 356 3.0 4.0 0.00 0.68 0.10 97 1009.1
20260506102020 44 350 3.0 5.0 0.00 0.69 0.10 98 1008.7
20260506101018 44 347 3.0 7.0 0.00 0.69 0.10 98 1008.6
20260506100019 44 328 4.0 8.0 0.00 0.69 0.10 98 1008.4
20260506095016 44 337 4.0 6.0 0.00 0.70 0.10 98 1008.3
20260506094016 44 13 3.0 7.0 0.01 0.70 0.10 99 1007.7
20260506093016 45 24 5.0 10.0 0.01 0.70 0.10 99 1007.3
20260506092016 45 25 3.0 6.0 0.01 0.70 0.10 99 1007.5
20260506091016 45 18 4.0 7.0 0.01 0.70 0.10 99 1008.0
20260506090016 45 11 5.0 10.0 0.01 0.70 0.10 99 1008.3
20260506085017 45 354 4.0 8.0 0.01 0.69 0.10 99 1008.5
20260506084017 45 5 4.0 10.0 0.01 0.69 0.09 99 1008.4
20260506083017 45 6 4.0 8.0 0.01 0.69 0.09 99 1008.4
20260506082017 45 8 5.0 9.0 0.01 0.68 0.09 99 1008.3
20260506081017 45 340 5.0 9.0 0.01 0.68 0.09 99 1008.2
20260506073019 45 353 4.0 9.0 0.03 0.68 0.09 99 1008.4
20260506072038 45 356 4.0 7.0 0.03 0.68 0.08 99 1008.4
20260506071019 45 348 4.0 6.0 0.03 0.68 0.08 99 1008.1
20260506062016 45 4 4.0 8.0 0.02 0.66 0.05 99 1007.9
20260506061016 46 343 4.0 9.0 0.01 0.66 0.04 99 1008.0
20260506051018 46 345 4.0 9.0 0.02 0.64 0.03 99 1008.5
20260506045058 47 357 3.0 4.0 0.01 0.63 0.01 98 1008.4
20260506044018 47 16 3.0 5.0 0.02 0.63 0.01 98 1008.3
20260506043019 47 19 4.0 6.0 0.02 0.63 0.01 99 1008.2
20260506042019 47 26 4.0 6.0 0.02 0.63 0.01 99 1008.1
20260506041016 47 19 4.0 7.0 0.03 0.62 0.00 99 1008.0
20260506040043 47 19 4.0 7.0 0.04 0.62 0.00 98 1008.1
20260506035036 47 24 5.0 9.0 0.04 0.62 0.62 98 1008.2
20260506034016 47 12 4.0 7.0 0.04 0.61 0.61 98 1008.5
20260506033016 47 31 4.0 9.0 0.04 0.61 0.61 99 1008.7
20260506032016 47 33 3.0 9.0 0.04 0.60 0.60 98 1008.8
20260506031016 48 6 4.0 6.0 0.04 0.59 0.59 98 1009.1
20260506030016 48 353 4.0 6.0 0.04 0.58 0.58 98 1009.2
20260506025017 48 21 4.0 8.0 0.05 0.58 0.58 98 1009.4
20260506024017 48 340 5.0 10.0 0.05 0.57 0.57 98 1009.4
20260506023017 48 343 4.0 6.0 0.05 0.57 0.57 98 1009.4
20260506022017 49 323 4.0 9.0 0.05 0.56 0.56 98 1009.4
20260506021049 49 298 5.0 8.0 0.05 0.55 0.55 98 1009.4
20260506020041 49 341 4.0 7.0 0.05 0.54 0.54 98 1009.3
20260506015018 49 2 3.0 5.0 0.04 0.53 0.53 98 1008.9
20260506014018 49 10 3.0 5.0 0.04 0.52 0.52 98 1008.7
20260506013021 49 356 3.0 7.0 0.08 0.51 0.51 98 1008.5
20260506012019 49 21 4.0 6.0 0.12 0.51 0.51 98 1008.4
20260506011015 50 252 3.0 8.0 0.14 0.50 0.50 98 1008.8
20260506010016 50 354 5.0 12.0 0.14 0.50 0.49 98 1008.4
20260506005016 50 353 4.0 7.0 0.14 0.49 0.49 98 1008.4
20260506004018 51 337 6.0 11.0 0.13 0.48 0.48 98 1008.2
20260506003016 53 338 7.0 19.0 0.09 0.44 0.44 98 1008.2
20260506002016 55 327 7.0 16.0 0.04 0.39 0.38 97 1007.8
20260506001017 57 222 4.0 8.0 0.01 0.36 0.36 98 1007.4
20260506000018 57 207 2.0 5.0 0.01 0.35 0.35 98 1007.4
20260505235037 56 175 2.0 4.0 0.02 0.35 0.35 98 1007.4
20260505234017 55 51 0.0 2.0 0.04 0.35 0.35 98 1007.5
20260505233057 55 30 1.0 3.0 0.04 0.35 0.35 97 1007.6
20260505232017 56 334 2.0 3.0 0.05 0.35 0.35 97 1007.9
20260505231038 57 332 2.0 4.0 0.06 0.35 0.35 97 1008.0
20260505230018 57 274 1.0 3.0 0.07 0.34 0.34 97 1008.2
20260505225017 57 263 1.0 3.0 0.09 0.33 0.33 97 1008.3
20260505224018 57 302 1.0 2.0 0.11 0.31 0.31 97 1008.2
20260505223038 57 301 2.0 3.0 0.18 0.31 0.31 97 1008.4
20260505222016 57 320 1.0 3.0 0.22 0.30 0.30 96 1008.3
20260505221016 57 281 1.0 2.0 0.22 0.29 0.29 96 1008.3
20260505220016 57 329 1.0 2.0 0.21 0.28 0.28 96 1008.2
20260505215016 57 324 2.0 4.0 0.18 0.24 0.24 96 1008.2
20260505214016 58 315 3.0 6.0 0.14 0.20 0.20 96 1008.2
20260505213036 58 273 3.0 5.0 0.06 0.13 0.13 95 1008.2
20260505212016 58 7 2.0 4.0 0.01 0.08 0.08 94 1007.6
20260505211036 59 40 2.0 4.0 0.01 0.08 0.07 94 1007.5
20260505210017 59 332 1.0 3.0 0.01 0.07 0.07 93 1007.8
20260505205017 59 295 1.0 3.0 0.00 0.07 0.06 93 1007.8